Terug naar catalogus

STARLINK-36815

ActiefCommunicatieSSO
NORAD 68313·PAYLOAD·🇺🇸 United States

Gelanceerd Mar 20, 2026 vanaf Vandenberg Space Force Base

Loading…

Volgende Passages (komende 24 uur)

TLE

VersSource: CelesTrak SupGP

Epoch: Sep 15, 2026, 04:16 UTC

1 68313C 26057V   26258.17826389  .00001628  00000+0  50530-4 0  2589
2 68313  97.2852  23.7226 0000944  84.0555 237.6748 15.33439172    18

Volg STARLINK-36815 in realtime met AllMySat

Download on the App Store